User: anonymous   Login
Location: Unspecified
(0.0000°N, 0.0000°E)
Time: 01:10:52
(UTC+00:00)
Language:

TBA - TO BE ASSIGNED - Orbit

View from above orbital plane
View from above orbital plane
View from above satellite
View from above satellite

Ground track
Ground track

The orbit is defined by the following mean orbital elements,

1 68163U          26145.30707420 +.00000000 +00000-0 +60465-3 0 00002
2 68163  97.2862 166.8811 0000412 243.5753 116.5447 15.33446450    00
Epoch (UTC): 25 May 2026 07:22:11
Eccentricity: 0.0000412
inclination: 97.2862°
perigee height: 465 km
apogee height: 466 km
right ascension of ascending node: 166.8811°
argument of perigee: 243.5753°
revolutions per day: 15.33446450
mean anomaly at epoch: 116.5447°

The dashed part of the orbit path shows where the satellite is in the earth's shadow,  

DLR